Find Starlink 3838

NORAD ID: 52352 Int'l Des: 2022-045 Owner: SPXS Country: US Constellation: starlink operational
LEOCIRCULAR

当前视图

正在加载3D地球...

About Starlink 3838

Starlink 3838 (NORAD 52352) is a starlink constellation satellite (v1.5) launched Apr 29, 2022 by SPXS of US. It operates in LEO, CIRCULAR orbit with a mass of 297.00 kg.

即将过境

Passes for default location (London). Set your location on the main map for personalized predictions.

高度历史

Loading altitude history...

两行轨道根数

1 52352U 22045X 26262.74212933 .00000477 00000-0 25243-4 0 9997
2 52352 53.1612 39.3372 0001067 84.3637 275.7487 15.34392927245195
Epoch: Sep 19, 2026 • Age: 6 hours

当前状态

高度 463.7 km
远地点 / 近地点 N/A
速度 7.64 km/s
星下点 28.73°N, 59.93°E
发射日期 Apr 29, 2022
运行时间 4.3 years
类型 internet

技术详情

分类 Payload
质量 297.00 kg
干质量 275.00 kg
长度 0.20 m
跨度 9.00 m
形状 ? Box + pan
制造商 SPXS
平台类型 Starlink
阶段状态 In Orbit
所有者/国家 SPXS/US

Most Searched